RH
20 19 18 17 16 15 15 14 14 14 14 14 14 14 14 14 13 13 13 14 14 14 14 14 15 16 17 18 19 21 21 21 20 20 20 20 20 19 19 18 17 15 14 12 10 9 7 7 7 7 6 6 6 6 5 5 5 4 5 4 5 6 5 10 12 8 24 45 48 49 52 49 48 49 52 54 53 57 62 63 64 66 67 68 70
19 18 16 16 15 14 14 14 14 14 14 14 14 14 14 13 13 13 13 13 13 13 14 14 14 15 15 16 16 17 19 20 20 19 18 18 17 16 15 15 15 15 15 14 12 11 9 9 8 7 6 6 6 6 5 5 5 4 5 5 4 6 9 16 24 23 32 51 58 57 60 57 53 55 60 63 66 70 70 67 67 68 71 74 71
18 16 15 14 14 14 14 14 14 14 14 14 14 14 14 13 13 13 13 13 13 13 13 13 14 14 14 15 15 15 16 16 17 17 16 16 14 14 12 11 11 10 10 11 11 10 10 9 9 7 6 6 5 5 5 4 5 4 5 6 6 7 15 28 42 45 50 62 66 62 64 65 60 62 68 72 76 77 73 69 71 72 74 75 71
16 15 14 14 14 15 15 14 15 14 14 14 13 13 13 12 12 12 12 12 11 12 12 12 13 13 14 15 15 15 15 14 15 15 14 14 13 12 11 9 9 8 7 8 7 8 8 8 8 7 6 7 6 6 5 4 5 5 4 7 8 12 27 46 62 70 74 74 69 67 70 70 67 68 74 79 81 79 74 74 77 77 77 76 71
15 14 14 15 15 15 15 15 15 14 13 13 12 12 11 11 11 10 10 10 9 10 10 10 11 12 12 14 14 15 15 14 14 13 12 13 12 11 10 8 8 7 7 7 6 7 7 6 7 6 5 6 6 5 6 5 5 5 5 8 14 27 51 71 83 91 91 81 72 73 76 75 73 73 78 84 83 78 77 81 84 82 80 78 75
15 15 15 15 15 15 15 14 14 13 12 12 11 10 10 9 9 8 8 8 8 8 8 8 9 9 10 11 12 13 14 14 13 13 12 11 10 10 10 8 8 8 7 7 7 7 7 7 7 6 5 6 6 5 5 5 6 7 8 15 30 53 77 90 95 100 97 86 80 79 79 80 80 78 81 85 83 79 81 87 88 85 83 82 81
15 15 16 16 15 15 14 13 12 12 11 10 10 9 9 8 8 8 7 7 7 7 7 8 8 9 9 10 11 11 12 13 13 12 11 10 10 9 9 9 8 8 8 8 7 7 7 7 7 6 6 6 5 5 5 6 9 11 16 31 55 79 94 98 99 101 98 91 87 85 85 87 86 83 84 85 82 80 85 89 90 90 90 87 86
15 16 16 15 15 14 13 12 11 11 10 10 9 8 8 8 8 8 7 7 8 8 8 8 9 9 10 10 10 11 11 12 12 12 11 10 10 9 8 9 8 8 9 8 8 8 7 7 7 6 6 6 5 6 7 11 17 21 33 56 78 92 99 100 99 100 99 95 92 91 92 92 90 87 85 84 82 83 88 92 93 96 97 94 90
16 16 15 15 14 13 12 11 11 11 10 9 9 8 8 8 8 9 9 9 9 10 10 11 11 11 12 12 12 12 12 12 12 12 11 10 10 10 9 9 8 8 8 8 8 8 7 7 7 6 6 6 6 9 13 21 33 43 59 79 92 98 100 100 100 100 99 98 96 97 97 95 92 89 87 85 85 89 95 97 96 97 101 99 96
16 16 15 14 13 12 12 11 11 10 10 9 9 9 10 10 10 11 11 11 12 12 12 13 13 13 13 13 13 13 13 13 12 12 12 11 11 10 9 9 8 8 8 9 9 8 8 8 7 7 9 9 12 20 28 40 59 75 86 95 98 100 100 100 100 100 100 100 100 100 99 96 93 91 91 91 92 95 99 100 97 98 101 100 99
16 15 14 13 13 12 12 11 11 11 11 11 11 11 12 12 12 12 12 13 14 14 15 15 15 15 15 14 14 14 13 13 13 13 12 12 12 11 10 9 9 9 9 9 8 8 8 8 8 9 12 17 24 36 49 66 86 96 99 100 100 100 100 100 100 100 100 100 100 100 98 97 96 97 98 97 96 98 100 101 99 99 99 99 99
15 15 14 14 13 13 12 12 12 13 13 13 13 13 13 13 13 13 13 14 15 16 17 17 17 17 17 16 15 15 14 14 14 13 13 12 12 13 12 11 11 10 10 10 10 10 9 10 10 11 15 26 39 51 65 83 98 101 99 100 100 100 100 100 100 100 100 100 100 100 99 98 99 101 102 101 99 100 101 100 99 99 98 98 99
15 15 15 15 14 14 13 13 14 14 14 14 14 14 14 14 15 15 14 16 17 18 19 19 19 19 18 17 16 16 15 15 14 14 14 13 14 16 16 16 15 13 13 13 13 14 14 14 14 16 26 42 56 65 78 93 100 100 99 100 100 100 100 100 100 100 100 100 100 100 100 100 100 100 102 101 99 99 99 98 99 100 99 98 100
16 15 16 16 15 15 15 15 15 15 15 15 15 15 16 16 17 18 18 18 20 20 21 21 21 20 20 18 18 17 16 16 15 15 14 15 21 27 26 22 20 17 16 19 21 22 25 26 27 31 43 59 73 82 91 99 100 99 100 100 99 100 100 99 100 100 100 100 100 99 99 100 100 101 102 100 97 98 100 100 100 101 100 99 101
16 16 17 17 17 17 17 16 16 16 16 16 17 18 18 19 20 20 20 21 22 23 23 23 22 22 21 20 19 18 18 19 18 19 19 23 33 42 39 32 30 28 28 33 36 37 40 43 47 54 62 73 87 96 99 100 100 100 100 100 100 100 100 99 100 100 100 100 99 98 99 101 102 103 102 99 99 100 101 101 101 100 99 100 100
18 18 19 19 20 19 19 18 18 18 18 18 19 20 21 21 22 23 22 23 25 25 25 25 24 23 22 23 23 21 23 28 29 29 31 36 47 56 55 50 48 47 48 53 54 54 59 64 68 73 79 84 95 102 101 99 100 100 99 100 100 100 100 100 100 100 100 100 98 97 99 102 103 103 102 101 100 101 101 101 100 99 99 101 100
20 21 22 22 21 22 21 21 20 20 21 21 21 22 23 23 24 25 25 25 26 27 27 26 26 26 26 27 28 27 31 41 46 46 49 58 66 70 72 71 70 68 69 73 73 74 82 89 90 90 90 92 98 103 101 99 100 100 99 100 100 100 100 100 100 100 100 100 100 99 100 101 102 101 101 101 100 101 101 99 99 100 101 102 100
23 23 24 24 24 24 24 24 24 24 24 24 23 24 25 25 27 28 28 28 28 29 29 28 28 30 32 33 38 42 46 57 67 70 73 83 90 89 89 89 88 85 84 87 89 91 95 100 101 100 97 97 100 103 102 100 100 100 100 100 100 100 100 100 100 100 100 100 100 101 100 101 102 102 101 100 99 100 100 99 100 103 103 102 101
25 25 25 26 26 26 27 27 27 27 26 26 26 27 27 28 29 30 31 32 32 32 32 31 30 34 37 39 49 62 68 74 86 93 94 97 100 101 100 99 96 95 95 96 97 99 100 102 102 101 100 100 101 102 101 101 100 100 100 100 100 100 100 100 100 100 100 100 100 101 102 102 103 103 101 100 100 100 100 100 102 104 102 102 102
26 27 27 27 28 29 30 29 29 29 28 28 28 29 29 29 31 33 33 35 35 36 37 36 35 37 40 44 58 77 86 89 96 102 101 100 101 102 103 102 100 100 100 100 101 101 100 101 101 101 100 100 100 100 100 100 100 100 100 100 100 100 100 100 100 101 101 100 100 102 104 103 102 102 101 100 100 99 99 100 101 101 101 102 102
28 29 29 30 30 31 31 32 31 31 31 30 29 30 31 32 35 36 37 37 38 39 41 42 41 41 43 52 67 84 94 99 102 103 101 100 100 100 101 101 101 100 100 99 99 101 101 100 101 101 100 100 100 100 100 100 100 100 101 100 99 101 102 101 101 102 102 101 101 103 104 103 101 101 101 100 100 99 99 100 100 99 100 101 101
31 31 32 32 33 33 33 33 33 33 33 32 32 32 33 35 41 44 43 42 43 45 47 48 49 47 48 59 75 87 94 100 104 103 101 100 100 99 100 100 100 100 98 95 95 100 103 103 103 103 101 100 100 100 100 100 99 100 101 100 99 100 101 101 102 103 103 102 101 101 102 102 101 101 101 100 100 99 99 99 100 99 100 100 102
33 34 34 34 35 35 34 35 35 36 36 35 34 34 35 39 47 52 51 49 49 50 53 55 56 55 53 60 75 87 93 100 104 102 100 100 99 99 100 100 100 100 99 96 95 100 103 103 104 104 102 100 100 100 100 100 99 100 100 100 99 100 100 99 101 104 104 103 101 100 101 101 100 101 101 100 99 100 100 100 100 101 101 102 104
36 37 37 36 37 36 36 37 38 38 39 38 37 37 38 43 51 57 58 58 56 56 59 63 65 61 56 59 72 84 93 101 102 100 99 100 100 99 100 100 100 100 100 99 98 100 102 101 100 101 101 100 100 100 100 100 100 100 100 100 100 100 100 100 100 102 103 102 100 99 100 100 100 100 100 100 100 101 102 101 101 102 103 103 103
39 39 39 39 39 38 38 39 40 40 41 41 40 40 41 46 55 60 62 64 65 64 65 70 72 67 60 62 72 83 93 101 101 99 101 101 97 97 100 100 101 101 100 99 100 101 102 101 100 100 100 100 100 100 100 100 100 100 100 100 100 100 100 100 100 100 102 102 99 99 100 100 100 100 101 101 102 101 102 103 102 102 102 102 101
42 43 43 42 42 42 41 41 41 41 42 43 43 45 47 52 60 65 66 70 72 70 69 74 76 71 64 64 72 80 90 99 101 100 100 94 89 94 100 99 99 102 101 99 99 100 101 100 100 100 100 100 100 100 100 100 100 100 100 100 100 100 100 100 99 99 101 102 98 97 100 101 100 100 101 102 101 100 101 102 100 99 101 102 101
47 47 47 47 46 46 45 43 43 42 42 43 45 47 52 59 68 72 71 74 76 73 71 75 79 74 65 62 68 76 83 93 101 101 94 85 84 94 101 98 97 100 101 100 100 100 100 100 100 100 100 100 99 99 99 100 100 100 100 100 100 99 99 100 99 97 100 101 97 97 100 101 99 100 101 101 101 101 101 99 97 98 101 102 101
52 52 53 52 51 50 49 47 46 44 44 44 45 49 54 61 70 77 78 82 86 82 76 78 81 79 71 65 68 73 75 83 95 100 94 88 90 97 99 97 96 99 101 100 100 100 100 100 100 100 100 99 99 99 99 99 100 100 100 100 100 100 99 100 100 98 100 100 99 99 101 101 99 100 100 100 100 101 100 98 97 101 102 100 99
56 57 57 57 57 56 54 52 50 47 46 45 46 52 60 66 73 78 82 91 100 98 91 89 90 87 82 78 81 84 80 77 85 93 96 97 98 99 100 100 99 100 100 100 99 100 100 100 100 100 100 100 100 101 100 100 101 102 101 100 100 100 100 100 99 99 100 100 100 101 101 100 99 100 100 100 101 101 101 100 100 102 101 99 99
59 60 61 61 61 61 60 57 55 52 50 48 46 49 58 70 81 86 86 91 101 106 102 100 98 96 93 91 93 97 93 86 86 93 99 99 95 96 102 104 102 101 100 100 100 100 99 100 100 100 100 100 100 100 100 100 101 101 101 101 100 100 100 100 99 99 101 103 103 102 101 100 100 100 100 100 101 101 101 102 101 100 100 101 102
60 61 63 63 64 65 64 63 61 57 55 53 50 47 48 56 72 87 92 92 97 104 106 104 103 101 98 96 96 99 100 97 94 98 103 98 90 92 100 102 101 101 100 99 100 100 99 100 100 100 100 100 100 100 100 100 100 100 100 100 100 100 100 100 100 100 102 105 103 101 100 100 100 100 100 100 100 100 101 103 102 100 100 103 104
61 62 63 64 66 67 67 67 66 63 60 58 55 52 48 46 52 67 83 92 98 104 104 102 102 103 102 99 99 99 100 99 97 98 99 94 87 91 100 101 100 100 101 99 99 100 100 100 100 100 100 100 100 100 100 100 100 100 100 100 100 100 100 100 100 100 102 103 101 100 100 100 100 100 100 100 100 100 102 104 103 101 101 104 104
61 62 64 66 67 69 70 70 69 68 66 63 59 55 54 51 48 50 61 76 92 103 104 101 100 103 105 105 103 101 101 102 101 101 100 95 88 90 97 101 100 100 101 100 100 100 100 100 100 100 100 100 100 100 100 100 100 100 100 100 100 100 100 99 100 100 101 101 100 100 100 100 100 100 100 100 100 101 102 104 103 102 102 103 103
64 65 68 69 70 71 73 74 74 72 70 68 65 61 57 56 56 56 57 61 71 85 96 101 101 101 103 104 104 103 102 102 102 102 102 99 96 94 95 97 99 100 100 100 100 100 100 100 100 100 100 100 100 100 99 100 100 99 100 100 100 100 100 100 100 101 101 100 100 100 100 100 100 100 100 100 100 101 102 103 103 101 101 102 103
67 70 72 74 75 76 78 79 79 77 75 73 70 67 62 59 60 64 68 69 70 75 85 95 100 101 101 100 99 100 101 100 100 99 97 95 98 100 99 98 99 100 100 100 100 100 100 100 100 100 100 100 100 100 100 100 100 100 100 100 99 100 100 100 100 100 100 100 100 100 100 100 100 101 101 101 101 102 102 102 102 101 101 103 103
72 75 78 81 82 83 84 85 83 82 81 80 77 73 68 64 63 67 72 78 81 82 87 93 98 102 104 103 101 102 103 102 101 100 97 94 95 99 101 101 100 100 100 100 100 100 100 100 100 100 100 100 100 100 100 100 100 100 100 100 100 100 100 100 100 100 100 100 100 100 100 100 101 101 101 101 102 103 102 102 101 102 103 103 102
80 83 86 88 90 90 90 91 90 89 87 86 84 80 74 69 67 69 73 79 84 86 90 93 95 97 99 102 103 104 104 102 101 101 99 95 93 95 98 100 100 100 100 100 100 100 100 100 100 100 100 100 100 100 100 100 100 100 101 101 100 100 100 100 100 100 100 100 100 100 100 100 100 100 101 101 102 102 102 103 102 102 102 102 101
90 92 95 96 97 97 96 96 96 95 93 91 89 87 82 75 70 69 73 80 85 87 90 95 97 95 93 94 98 103 106 104 102 101 100 98 96 97 99 99 100 101 100 100 100 100 100 100 100 100 100 100 100 100 100 100 100 100 100 101 101 101 100 100 100 100 100 100 99 100 100 100 100 100 99 98 98 99 100 102 103 102 102 101 101
98 99 101 102 102 102 102 101 99 99 97 95 93 91 88 83 77 73 73 77 83 87 91 95 99 100 96 92 92 97 102 103 102 102 102 101 100 100 100 100 100 100 100 100 100 100 100 101 100 100 100 100 100 100 100 99 100 100 99 99 99 99 100 100 100 100 100 100 100 100 100 99 100 99 97 95 95 96 98 100 101 101 101 101 101
103 101 101 102 103 102 103 103 103 102 101 99 96 95 93 89 84 80 76 75 79 86 92 96 100 102 100 95 91 92 95 99 102 102 102 101 100 100 100 100 100 100 100 100 100 100 100 101 101 101 101 100 100 100 99 98 98 99 99 98 97 96 96 97 97 97 97 98 99 100 100 100 100 100 97 93 92 94 96 98 98 99 100 100 101
104 103 101 102 103 103 103 103 103 104 104 103 100 98 97 95 91 88 83 79 78 82 90 97 102 104 102 100 98 98 99 100 103 104 102 100 100 100 100 99 100 100 100 100 100 100 100 100 100 101 102 101 101 101 100 100 100 100 100 99 98 96 95 93 92 92 92 93 94 96 97 97 97 97 95 91 89 91 95 96 97 98 98 98 99
102 101 101 102 102 103 103 103 103 104 105 105 104 102 101 99 97 94 91 87 82 80 85 94 102 105 105 102 101 103 105 105 106 107 106 102 100 99 100 100 100 100 100 100 100 100 100 100 100 100 100 100 101 101 102 103 103 103 102 102 101 100 98 94 91 89 89 90 91 92 92 93 93 92 92 90 89 90 93 94 94 94 94 95 98
102 101 100 101 101 101 101 102 103 104 105 104 104 103 103 103 102 100 97 95 91 85 83 89 97 104 106 104 101 101 104 107 107 106 106 106 103 100 99 100 100 99 100 100 100 100 100 100 100 100 100 100 100 100 100 101 101 101 101 101 102 102 101 98 94 93 92 92 93 93 93 93 93 93 93 92 92 92 94 94 95 95 95 97 100
104 102 101 100 100 101 102 102 103 104 105 104 105 105 104 105 106 105 102 100 98 94 88 87 92 100 105 106 103 100 100 104 107 107 106 108 108 104 100 99 100 100 100 101 100 100 100 100 100 100 100 100 100 100 100 100 100 100 100 100 100 100 101 100 99 99 98 98 99 99 98 97 96 96 96 97 97 98 100 100 101 101 101 101 102
105 104 102 101 101 101 101 101 102 103 104 104 105 106 106 106 107 108 106 103 102 101 97 91 90 96 103 106 105 101 98 101 106 108 108 108 108 107 103 101 100 100 100 101 101 100 100 100 100 100 100 100 100 100 100 100 100 99 100 100 100 100 100 100 100 100 100 100 100 100 100 100 99 98 98 99 100 101 102 103 103 104 104 103 103
102 103 103 102 102 101 101 100 100 101 103 104 103 103 105 106 107 108 108 105 103 104 103 98 93 94 101 107 107 103 100 99 101 105 108 108 108 108 105 102 100 100 100 100 100 101 100 100 100 100 100 100 100 100 100 100 100 100 100 100 100 100 100 100 100 100 100 100 100 100 100 100 100 99 99 99 100 100 101 102 102 102 103 103 103
97 101 103 102 101 101 101 101 100 100 102 103 102 101 102 104 106 107 108 107 105 104 105 105 100 95 98 105 108 106 103 101 100 102 107 110 110 109 106 102 100 100 100 99 100 100 101 100 100 100 100 100 100 100 100 100 100 100 100 100 100 100 100 100 100 100 100 100 100 100 100 100 100 100 100 100 100 100 100 100 100 100 101 101 101
94 98 102 103 102 101 100 100 99 100 100 100 101 101 100 102 105 107 108 107 106 104 104 106 105 101 99 102 107 109 107 105 102 102 105 108 109 108 107 105 102 100 100 100 100 100 100 101 101 101 101 100 100 100 100 100 100 100 100 100 100 100 100 100 100 100 100 100 100 100 100 100 100 100 100 100 100 100 100 100 100 100 100 101 101
91 94 99 103 104 103 102 100 99 99 99 99 99 99 99 100 103 105 106 106 105 103 102 103 106 105 102 102 105 109 111 109 106 105 105 105 107 108 109 108 106 102 99 100 100 100 100 100 100 101 101 101 100 100 100 100 100 100 100 100 100 100 100 100 100 99 100 100 100 100 100 100 100 100 100 100 100 101 100 100 100 100 100 100 100
91 92 95 99 102 103 104 103 101 101 102 100 98 96 96 98 100 102 104 105 104 102 101 100 103 105 104 103 104 108 110 111 110 108 105 105 107 109 109 109 109 105 101 100 100 100 100 100 100 100 102 102 101 100 100 100 100 100 100 100 100 100 100 100 100 100 100 100 100 100 100 100 100 100 100 100 100 101 101 101 100 100 100 100 100
92 91 91 94 97 100 102 102 102 102 102 101 98 96 95 95 96 98 100 102 103 102 100 99 99 102 104 104 104 106 108 110 110 109 107 106 107 109 110 111 111 108 103 101 100 100 100 100 100 100 101 102 102 101 100 100 100 100 100 100 100 100 100 100 100 100 100 100 100 100 100 100 100 100 100 100 100 100 101 101 101 100 100 100 100
Wind_Speed
41 41 41 41 42 42 42 42 42 43 43 44 45 45 46 47 48 49 49 50 50 51 51 51 52 52 53 53 53 53 53 54 54 54 53 53 52 53 53 54 55 55 55 55 55 55 55 55 55 54 54 55 55 55 56 56 56 56 56 55 55 55 55 56 57 55 54 53 51 52 52 51 50 48 46 48 51 52 52 52 54 55 55 55 54
41 41 41 41 42 42 42 43 43 44 44 45 46 46 47 48 49 50 50 51 52 52 53 53 53 54 54 54 54 54 54 54 54 54 54 54 53 53 53 54 54 54 54 54 54 54 55 54 54 53 54 55 55 55 56 56 56 55 55 55 55 54 55 55 56 55 54 53 52 52 53 52 52 51 48 47 48 49 49 50 52 53 54 53 52
41 42 42 42 42 43 43 43 44 45 45 46 47 48 49 50 51 52 52 53 53 54 55 55 55 55 55 55 55 55 55 55 54 54 54 54 54 53 53 53 54 54 54 54 54 54 55 54 53 53 54 55 55 55 56 56 56 55 54 54 54 54 54 54 55 55 54 53 52 53 53 53 53 52 49 48 46 45 45 48 50 51 52 52 51
42 42 43 43 43 44 44 45 46 47 47 48 49 50 51 52 53 54 54 55 55 56 57 57 57 57 57 57 57 56 56 56 55 55 54 54 53 53 53 53 53 54 53 53 53 54 54 54 53 53 54 54 54 54 55 55 55 54 53 53 53 53 53 54 54 54 54 53 53 53 54 54 53 51 49 48 44 41 42 45 47 49 50 51 52
43 44 44 44 45 45 46 47 48 49 50 51 52 52 53 54 55 55 56 56 57 57 58 58 58 58 58 58 58 57 57 57 56 55 54 54 53 53 52 52 52 53 53 53 53 53 54 54 53 53 53 54 54 54 54 54 53 53 52 52 51 51 52 53 53 53 53 53 53 53 53 53 52 51 49 46 42 39 40 43 44 46 49 51 53
44 45 46 46 47 47 48 49 50 51 52 53 54 55 55 56 56 56 57 57 57 57 58 58 58 58 58 58 58 58 58 57 57 56 55 54 53 53 52 52 52 52 52 52 53 53 53 53 53 53 53 53 53 54 53 52 51 51 51 50 50 50 50 51 52 52 53 53 53 53 53 52 51 50 48 44 40 39 40 41 43 45 48 51 53
46 47 47 48 49 50 51 52 53 53 54 55 56 56 56 56 56 57 57 58 58 58 58 58 58 58 58 58 58 58 58 57 57 56 55 54 53 52 52 52 52 52 51 51 51 52 52 52 52 52 52 52 52 53 52 51 50 49 49 48 48 48 49 50 51 51 51 51 51 52 52 50 49 49 47 42 39 40 40 40 41 44 48 51 53
47 48 49 50 51 52 53 54 54 55 56 56 56 56 56 56 56 57 57 58 58 59 59 58 58 57 57 57 57 57 57 56 56 56 55 54 53 52 51 51 51 51 51 50 50 50 51 51 51 51 51 51 51 51 51 49 48 47 47 46 46 47 48 49 50 50 50 50 50 50 50 48 47 47 44 41 39 39 39 38 40 43 47 50 51
49 50 51 52 53 54 55 55 55 55 56 56 56 56 56 57 57 57 58 58 58 58 58 57 57 56 56 55 55 55 55 55 55 54 54 54 53 52 51 51 50 50 50 50 49 49 50 50 50 50 49 50 50 49 48 47 45 45 45 45 45 46 47 48 48 48 49 49 48 48 47 46 46 45 42 39 38 38 37 37 39 42 45 48 49
50 51 52 53 54 55 55 55 55 55 55 56 56 56 57 57 57 57 57 57 57 56 56 55 55 54 54 53 53 53 53 53 53 52 52 52 51 51 51 50 50 50 49 49 49 49 49 49 49 48 48 48 47 46 45 43 42 43 44 44 45 45 46 47 47 47 47 47 46 45 44 44 44 42 40 38 37 35 34 36 38 41 45 47 45
52 53 53 54 54 55 55 55 55 55 55 55 56 56 57 57 57 57 56 56 55 55 54 53 53 53 52 52 51 51 51 51 51 50 50 49 49 49 49 49 49 49 49 49 49 48 48 48 48 47 46 46 45 43 42 40 40 41 42 42 43 44 45 46 46 46 45 44 43 42 42 43 42 40 38 36 35 33 33 35 38 42 45 45 41
53 53 54 54 54 54 54 54 54 54 55 55 56 56 56 56 55 55 55 54 54 53 53 52 51 51 50 50 50 49 49 48 48 48 48 47 47 47 47 47 47 47 47 48 48 48 48 48 48 47 45 43 42 40 39 39 39 40 40 41 42 42 43 44 44 43 42 41 41 41 41 41 40 39 36 34 33 32 32 35 39 42 44 43 39
53 53 53 53 53 53 54 54 54 54 55 55 55 55 54 54 53 53 53 53 53 52 51 50 50 49 48 48 48 48 47 47 47 46 46 46 45 45 45 45 45 46 46 46 47 47 47 48 48 46 43 40 39 38 38 38 39 39 39 40 41 41 41 41 41 41 40 39 40 41 40 39 38 36 33 33 33 33 33 36 39 41 41 40 36
53 53 53 52 53 53 53 54 54 54 54 54 54 53 53 52 52 52 52 52 51 51 50 49 48 47 47 47 47 46 46 45 45 45 44 43 43 43 44 44 44 45 45 45 46 46 46 47 47 45 41 37 35 36 37 37 38 39 40 41 42 42 41 40 39 39 39 39 40 39 37 36 35 33 31 33 33 33 34 36 38 39 38 37 35
52 52 52 52 52 53 54 54 54 54 53 53 52 52 51 51 51 51 51 51 50 49 49 48 46 45 45 46 46 45 44 43 43 43 42 41 40 40 42 42 43 42 43 43 44 45 45 45 44 42 39 35 33 34 36 36 37 37 39 40 41 42 42 40 38 38 37 38 38 37 34 32 31 30 30 32 34 34 35 36 36 37 36 35 34
51 51 52 52 53 53 54 54 53 53 52 52 51 50 50 50 50 50 50 50 49 48 47 46 45 44 44 44 44 44 42 41 41 40 40 39 37 36 38 39 40 40 40 40 42 43 43 43 42 40 38 35 32 33 34 35 35 36 38 39 40 42 42 40 37 36 36 36 37 36 32 29 28 29 29 31 33 34 35 36 36 35 34 34 34
51 51 51 52 52 53 53 53 52 52 51 51 50 49 49 49 49 49 50 49 48 47 45 44 44 43 43 43 42 42 40 39 38 38 37 36 35 34 34 36 37 37 37 38 39 40 39 40 40 38 36 34 32 32 32 33 34 35 36 38 40 41 41 38 36 36 36 35 36 35 32 28 27 27 30 31 32 34 35 35 33 32 32 32 33
50 51 51 51 52 52 52 52 51 50 50 50 49 48 48 48 48 48 49 48 47 45 44 43 43 42 42 41 40 40 39 37 36 36 36 34 33 33 33 33 35 35 35 35 36 37 36 37 37 36 34 34 32 31 30 32 34 35 36 37 39 40 39 37 35 36 36 35 35 34 32 29 28 29 31 31 31 32 33 31 29 30 31 31 31
50 50 51 51 51 51 50 50 50 49 49 48 48 48 47 47 47 47 47 47 46 44 43 43 42 41 40 39 37 37 36 35 34 34 35 33 31 31 33 33 34 33 33 33 33 33 32 33 34 33 33 32 31 30 29 31 34 36 35 36 38 39 36 34 35 36 36 35 33 32 31 30 30 32 33 31 30 30 29 27 29 30 30 29 29
50 50 50 50 49 49 49 48 48 48 47 47 47 47 47 47 46 46 45 45 44 42 41 41 41 40 38 37 35 33 33 33 32 32 33 33 30 29 32 34 33 32 31 30 30 29 28 28 29 29 30 30 30 28 26 28 32 34 35 36 37 35 32 33 35 35 34 33 32 31 31 30 31 34 34 32 31 30 28 28 29 29 28 28 29
50 49 49 49 48 47 47 47 46 46 46 46 46 45 45 45 45 45 44 43 42 40 40 40 40 39 36 35 33 30 29 29 29 30 31 30 26 25 28 31 31 30 29 27 26 25 24 25 25 26 27 28 28 27 25 25 28 32 34 35 34 31 31 33 34 33 33 33 32 31 31 32 33 35 34 32 32 31 29 29 28 27 26 27 28
49 48 48 47 47 46 46 45 45 45 45 45 45 44 44 43 43 43 42 41 40 39 39 40 39 37 35 33 30 28 26 25 24 26 25 22 20 22 26 28 27 27 27 26 22 20 20 21 22 23 24 25 26 27 27 25 25 28 30 32 30 29 30 32 31 32 33 32 31 31 31 32 33 35 35 33 32 32 30 29 28 26 25 26 27
48 47 47 47 46 45 45 44 44 44 44 44 43 43 42 41 41 40 40 40 39 37 38 39 38 37 34 30 26 25 23 19 17 17 16 14 15 20 24 25 24 24 25 25 21 19 18 18 17 18 20 21 22 24 25 26 27 27 26 25 25 26 29 30 30 31 31 31 31 31 31 32 33 34 35 33 32 31 30 28 26 25 24 25 26
47 46 46 45 45 44 44 44 44 43 43 43 42 41 41 40 39 38 38 38 38 37 38 38 37 36 34 29 25 21 17 13 9 9 11 11 13 17 21 23 23 23 24 23 22 20 19 16 14 14 14 16 17 19 21 24 27 28 27 24 23 25 28 29 29 29 29 29 30 30 29 30 31 32 32 31 30 30 29 27 25 23 23 24 25
46 45 45 44 44 44 43 43 43 43 42 41 41 40 40 40 39 37 37 37 37 37 38 38 37 35 33 29 24 18 13 8 5 6 8 9 10 14 19 21 21 23 23 22 21 21 19 17 15 13 12 13 14 16 19 22 24 26 26 25 26 28 28 28 28 28 27 28 28 27 27 28 28 29 30 30 30 29 26 24 24 23 23 24 25
45 44 44 44 43 43 43 43 42 42 41 40 39 39 39 39 39 37 36 36 36 36 37 37 36 35 32 27 22 16 11 8 6 7 9 9 9 14 18 18 18 20 21 21 20 20 19 18 16 15 14 13 14 16 19 21 22 24 25 26 28 30 31 30 29 27 26 26 26 25 25 25 26 29 30 30 30 28 24 23 24 24 24 23 21
44 43 43 43 43 43 43 43 42 42 40 39 38 37 37 38 38 37 36 35 35 35 36 37 37 36 33 28 22 17 12 10 9 9 11 12 14 16 17 16 16 18 19 18 19 19 20 18 16 15 14 15 16 17 17 19 21 23 26 27 29 31 31 30 29 26 23 23 24 23 24 25 27 29 30 30 29 26 24 24 24 24 22 20 18
43 43 43 43 43 43 43 43 43 42 41 39 38 37 37 37 36 36 35 35 35 35 36 37 38 38 36 32 27 23 16 11 11 12 13 17 19 18 18 18 18 18 18 16 17 18 19 17 13 13 14 15 16 16 17 18 21 23 24 26 27 29 28 26 26 24 22 23 24 24 25 26 28 29 29 28 27 26 25 25 24 22 20 19 18
43 43 43 43 43 43 43 43 43 42 41 40 38 36 37 38 37 35 33 32 34 34 35 37 38 38 37 34 32 30 25 18 14 14 15 19 19 17 18 20 20 19 17 16 18 18 15 12 9 9 12 13 15 15 16 17 19 20 22 24 26 27 26 25 24 23 22 23 25 26 26 27 27 28 28 27 27 26 25 25 24 22 20 19 19
43 43 44 44 44 44 44 43 43 42 41 41 39 36 34 34 35 35 32 30 29 30 32 33 34 35 35 33 31 32 31 27 22 19 19 20 18 14 15 19 20 19 16 15 19 18 11 7 5 7 9 10 11 12 12 13 14 16 18 20 23 24 25 24 24 23 23 25 27 27 27 27 27 27 28 28 27 27 26 25 24 23 21 20 19
44 44 44 45 45 45 44 44 43 42 41 41 40 38 35 31 30 30 30 29 27 26 28 29 30 30 32 32 31 30 30 30 28 25 23 24 22 17 15 16 18 18 14 13 16 15 9 4 3 5 6 7 7 6 6 6 8 11 12 14 16 18 21 23 24 24 25 27 28 28 28 28 27 27 28 28 28 27 26 26 25 24 22 20 19
46 46 46 45 45 45 45 44 43 42 42 41 40 39 38 35 31 27 25 26 27 26 25 27 28 27 27 29 30 29 28 30 30 28 27 26 23 20 18 16 16 15 12 11 12 12 7 3 2 3 4 6 8 8 8 8 8 7 7 9 11 14 19 22 24 25 27 28 29 28 28 27 27 27 27 28 27 27 26 26 25 24 22 20 19
47 47 47 46 46 45 44 44 43 42 42 41 40 39 39 38 36 32 26 24 23 23 23 25 26 27 25 24 25 26 26 27 28 28 28 27 24 21 20 19 16 14 12 10 10 10 7 3 1 3 6 9 10 10 8 7 6 6 6 7 10 13 18 22 25 27 28 29 29 28 28 28 27 27 27 27 27 26 26 26 25 24 23 21 19
47 47 47 47 46 45 44 44 43 42 41 41 40 39 39 38 38 36 33 28 24 21 20 21 23 25 24 23 23 23 24 24 25 25 26 25 23 20 20 20 19 17 15 11 9 9 9 6 4 5 7 10 11 11 10 8 7 6 6 7 10 13 17 23 26 27 27 29 29 28 28 27 26 26 27 27 27 26 26 25 24 23 22 21 20
46 46 46 46 45 45 44 43 42 41 41 40 40 39 38 37 36 36 35 33 30 27 24 22 22 23 23 22 22 22 23 23 24 24 24 22 21 19 18 19 19 19 17 15 13 11 10 9 8 7 8 10 12 13 12 11 11 10 8 8 10 12 16 22 26 26 26 27 28 28 27 27 27 27 27 27 26 26 25 25 24 22 21 20 20
46 45 45 45 44 44 43 42 42 41 40 40 39 38 37 37 36 35 33 32 32 31 29 26 24 22 22 22 21 21 22 22 23 24 24 22 19 18 16 16 17 18 18 18 16 14 13 11 11 10 10 10 12 14 14 14 14 14 13 12 12 13 16 20 24 25 25 26 27 27 27 28 29 29 28 27 26 25 24 24 23 22 21 21 20
46 45 45 44 44 43 42 41 41 40 39 39 39 38 37 36 35 34 33 31 31 30 29 28 25 22 21 20 20 19 19 19 20 22 22 21 19 17 15 14 15 17 19 19 19 17 16 15 13 13 12 12 13 14 15 16 16 16 16 17 16 17 17 19 22 23 24 25 26 26 27 29 30 29 28 27 26 25 24 24 23 22 21 21 20
45 44 44 43 43 42 42 41 40 39 38 38 37 37 36 35 34 33 32 31 30 29 29 28 27 25 22 20 19 18 17 17 17 18 19 19 19 18 17 15 14 15 17 18 19 19 18 17 17 16 15 15 15 15 16 17 18 19 19 19 20 20 21 21 22 24 25 25 26 26 27 28 28 28 27 27 26 25 24 24 23 21 21 21 20
44 43 43 42 42 42 41 40 40 39 38 37 36 36 35 34 33 32 31 30 29 28 28 28 27 26 24 22 20 19 17 16 14 14 15 16 17 17 17 16 15 15 15 16 16 17 17 18 18 19 19 18 18 17 16 17 18 20 21 22 22 23 24 25 25 26 27 27 28 28 28 28 28 27 27 27 26 26 25 24 23 22 21 21 21
44 43 42 42 41 40 40 40 39 38 38 36 35 35 34 33 33 32 31 30 28 27 27 27 27 26 25 24 22 21 19 18 16 14 13 13 14 14 14 14 14 14 14 14 14 15 15 16 17 18 20 20 20 19 18 18 18 19 21 22 24 25 26 27 28 29 29 30 30 30 30 30 30 29 29 28 28 27 26 25 24 23 23 24 23
44 43 42 41 40 39 39 39 38 37 37 36 35 34 33 33 32 32 31 30 29 27 26 26 26 26 25 24 23 23 22 20 19 17 15 14 13 12 12 12 12 12 12 13 13 14 14 14 14 15 17 19 20 20 20 19 18 19 20 21 22 24 25 26 27 29 30 31 32 32 33 33 33 32 32 31 30 29 28 27 27 26 26 26 25
44 43 42 41 40 39 38 38 37 36 36 35 34 34 33 32 31 31 31 30 29 27 26 25 25 25 24 23 22 22 22 21 20 19 17 16 14 13 12 12 11 11 11 11 12 12 12 12 13 13 14 15 17 18 18 18 18 18 19 20 21 22 23 24 25 26 27 28 29 31 32 33 34 33 33 33 32 31 30 29 28 28 28 27 26
44 43 42 41 40 39 38 37 37 36 35 34 34 33 32 31 31 30 30 30 29 28 26 25 24 23 23 23 22 21 21 21 20 19 18 17 15 14 13 12 12 11 11 11 11 11 11 11 12 12 12 13 14 15 16 17 17 17 17 17 18 19 20 21 22 23 24 25 25 26 27 28 29 29 30 30 29 29 28 28 28 28 27 26 26
45 43 42 41 39 38 38 37 36 35 34 34 33 32 32 31 30 29 29 29 29 28 27 25 24 23 22 22 21 20 20 20 19 19 18 17 16 15 13 12 12 12 11 11 10 10 10 10 11 11 11 12 13 14 14 15 15 15 15 15 15 15 17 18 19 20 20 20 21 22 22 23 24 24 24 25 25 25 25 25 26 26 26 25 25
44 43 42 41 39 38 37 37 36 35 34 33 32 31 31 30 29 29 28 28 28 28 27 25 24 23 22 22 21 20 19 19 19 18 18 17 16 15 14 13 12 11 11 11 11 10 10 10 10 11 11 11 12 13 13 13 14 14 14 13 13 14 15 16 17 17 17 17 18 18 19 20 21 21 21 22 22 22 23 23 24 24 25 24 24
44 43 42 41 40 38 37 36 35 35 34 33 32 31 30 29 28 28 27 27 28 27 26 25 24 23 22 22 21 20 19 18 18 18 18 17 16 15 14 13 12 12 11 11 11 11 10 10 10 10 10 11 12 12 13 13 13 13 13 13 13 13 14 15 16 16 16 16 17 17 18 19 19 20 20 21 21 21 21 22 23 23 24 24 24
44 43 42 41 40 39 37 36 35 34 33 33 32 31 30 29 28 27 27 27 27 27 26 25 24 23 22 21 21 20 19 18 17 17 17 17 16 15 13 13 12 12 11 10 10 11 11 11 11 11 11 11 11 12 13 13 13 13 13 14 14 14 14 15 15 15 15 16 16 16 17 17 18 19 19 19 20 20 21 21 22 23 23 23 24
45 43 42 41 40 39 38 36 35 34 33 32 31 31 30 29 28 27 27 27 26 26 26 25 24 23 22 21 20 20 19 18 17 17 17 17 16 15 14 13 12 12 12 11 10 10 11 11 11 11 11 11 12 12 13 13 13 13 13 14 14 14 14 14 15 15 15 15 16 16 16 16 17 17 18 18 18 19 20 20 21 22 22 23 23
45 44 43 41 40 39 38 37 35 34 33 32 31 30 30 29 28 27 27 26 26 26 25 25 24 23 22 21 20 19 18 18 17 16 16 17 16 15 14 13 12 12 12 11 10 10 10 11 12 12 12 12 12 12 12 13 13 13 14 14 15 15 15 15 15 15 15 15 15 16 16 16 16 17 17 17 17 18 19 19 20 21 21 22 22
44 44 44 42 41 39 38 37 36 34 33 32 31 30 29 28 28 27 27 26 25 25 25 24 24 22 21 21 20 19 18 17 16 16 16 16 16 15 15 14 13 12 12 11 10 10 10 10 11 12 12 12 13 13 13 13 13 14 14 15 15 15 16 16 16 15 15 15 15 16 16 16 17 17 17 17 17 17 18 19 19 20 20 21 21
44 44 43 43 42 40 38 37 36 35 33 32 31 30 29 28 27 27 26 26 26 25 24 23 23 22 21 20 20 19 18 17 16 16 15 15 15 15 15 14 13 12 12 11 11 10 10 10 10 11 12 12 13 13 14 14 14 14 14 15 15 16 16 16 17 17 16 16 16 16 16 16 16 16 16 16 16 17 18 18 19 19 19 20 20
Wind_Direction
302 301 301 302 303 304 305 306 307 307 307 307 307 307 306 305 304 304 304 303 302 301 300 299 298 298 297 296 295 294 293 292 291 289 288 286 284 282 281 280 278 277 276 275 274 273 273 272 271 271 271 270 269 269 269 268 268 268 268 267 266 266 266 266 267 267 266 266 266 266 266 264 262 259 254 252 254 256 259 261 262 261 261 261 261
303 303 304 305 306 306 307 308 308 308 308 308 307 307 306 306 305 305 304 303 302 301 300 299 298 297 296 295 294 293 292 291 290 289 287 286 284 282 281 280 279 278 277 275 274 274 273 272 271 271 271 270 269 269 269 269 269 268 268 267 266 266 265 265 266 266 265 265 265 265 265 264 263 262 259 254 254 256 259 259 259 259 259 260 259
305 306 307 307 307 308 308 309 309 309 309 309 308 308 307 307 306 305 304 303 302 301 300 299 298 297 295 294 293 292 291 290 289 288 287 286 284 282 281 279 278 277 277 276 275 274 273 272 271 271 270 270 269 268 268 268 268 268 267 266 265 265 264 264 264 264 264 264 264 264 264 263 263 262 261 258 256 256 256 256 256 257 258 258 258
308 308 308 308 309 309 310 310 310 310 310 309 309 309 308 307 306 305 304 303 302 301 299 298 297 296 295 294 293 292 291 290 289 288 286 285 284 283 281 279 278 277 277 276 275 274 273 273 272 271 270 269 268 268 268 268 268 267 267 266 265 264 262 261 261 262 261 262 262 262 262 262 262 262 261 260 259 256 253 252 253 255 256 256 255
310 310 310 310 311 311 312 312 312 311 311 310 310 309 308 307 306 305 304 303 302 300 299 298 297 296 295 293 292 291 291 290 289 288 287 286 284 283 281 279 278 277 276 276 275 274 274 273 272 271 270 269 268 268 268 267 267 267 266 265 264 262 261 259 259 258 258 259 259 260 260 261 261 261 260 260 259 255 251 251 252 253 254 253 252
312 311 311 312 313 313 313 313 313 312 312 311 310 310 309 308 307 307 306 304 303 302 301 300 299 297 296 294 293 291 290 290 289 288 287 286 285 283 281 279 278 276 276 275 275 274 274 273 272 271 270 269 268 268 268 267 266 265 265 264 262 260 259 257 256 256 256 257 257 258 258 259 260 260 260 260 259 255 253 252 251 250 251 250 250
313 313 313 314 314 314 314 314 314 313 313 312 311 311 310 310 309 308 308 307 305 304 303 302 301 299 297 295 294 292 291 290 289 288 287 286 285 283 282 280 278 276 275 275 274 274 273 273 272 272 271 270 269 268 267 266 265 264 263 262 260 258 257 255 254 254 254 255 256 257 257 258 258 259 259 259 257 255 255 253 249 247 247 247 247
314 314 315 315 315 315 315 315 315 314 314 313 312 312 312 311 311 310 309 308 307 306 305 303 302 300 299 297 296 294 292 291 290 289 288 287 285 284 282 280 279 277 276 275 274 273 273 272 272 271 271 270 269 268 267 265 264 263 261 259 257 256 255 254 253 252 253 254 255 255 256 256 257 258 258 258 257 257 256 253 248 245 245 245 245
315 315 316 316 316 316 316 315 315 315 314 314 313 313 313 313 312 311 310 309 308 307 306 304 303 302 300 299 297 296 294 293 291 290 289 287 286 284 282 280 279 277 276 275 274 273 272 271 271 270 269 268 267 267 265 264 262 261 259 256 254 253 252 252 252 252 252 253 253 253 254 255 256 257 259 260 260 260 257 251 246 244 244 245 245
316 317 317 317 317 316 316 316 316 316 315 315 315 315 314 313 313 311 310 309 308 307 306 305 304 303 301 300 298 297 295 293 292 291 289 288 287 285 283 281 280 278 277 275 274 272 271 270 270 269 268 267 265 264 263 262 260 258 257 255 252 251 251 250 250 251 251 251 252 252 253 254 256 258 261 262 261 258 253 248 244 243 243 244 244
318 318 318 317 317 317 317 317 317 317 316 316 315 315 314 313 312 311 309 308 307 307 306 305 304 303 302 301 299 297 296 294 293 291 290 289 287 285 283 282 280 279 278 276 275 273 272 271 269 268 266 265 263 262 260 258 256 255 254 254 252 250 249 250 250 250 250 250 249 250 252 254 256 259 262 261 258 255 250 246 243 242 242 244 242
318 318 318 318 318 318 317 317 317 317 317 316 315 314 313 312 311 310 309 308 307 306 306 305 305 304 303 301 300 298 296 295 294 292 290 289 288 286 283 281 280 278 277 276 274 273 272 270 269 267 266 264 262 260 257 254 252 251 251 251 251 250 249 249 249 248 246 246 248 250 252 254 257 260 261 259 256 252 247 243 241 241 242 243 241
319 319 319 319 318 318 318 317 317 317 316 316 315 314 313 313 311 310 309 308 307 307 307 307 306 306 304 302 300 299 297 296 295 293 291 290 289 287 284 282 279 277 275 274 273 271 271 270 269 268 266 264 262 259 255 251 249 248 246 246 247 247 247 246 246 245 244 245 248 250 252 256 259 260 258 256 254 250 244 240 240 241 242 242 241
319 319 319 319 318 318 318 317 317 317 316 316 315 315 314 313 312 310 309 309 309 309 308 308 308 307 306 303 301 300 299 298 297 295 294 293 291 289 286 282 279 277 275 273 272 271 270 269 269 269 267 264 260 257 254 250 248 246 244 243 243 243 242 241 240 241 243 245 248 251 254 258 260 258 255 253 250 247 244 242 241 242 243 242 239
320 319 319 319 319 318 318 318 317 317 316 316 316 315 314 313 313 311 311 310 311 311 311 310 309 308 307 305 303 302 302 302 300 298 296 295 293 290 286 283 280 278 275 273 271 270 269 268 269 268 267 264 257 253 252 251 248 246 243 242 242 241 240 238 238 241 245 248 250 252 256 258 257 255 253 251 249 246 243 242 241 241 241 240 238
319 319 320 320 319 319 318 318 318 317 317 317 316 316 315 315 314 313 312 312 312 312 312 312 311 309 308 307 306 305 305 305 303 301 299 297 296 292 287 284 281 278 275 272 270 268 268 269 269 267 266 263 257 251 250 251 250 246 243 241 239 239 238 237 237 242 248 251 254 256 255 253 251 250 249 248 248 246 243 241 240 240 239 239 238
320 320 321 320 319 319 319 319 319 318 318 317 317 317 316 316 315 314 314 313 313 314 314 313 312 310 309 309 309 309 308 308 307 305 303 303 302 298 292 286 282 278 275 272 270 269 268 268 268 267 266 263 258 252 249 250 250 247 243 240 238 237 236 236 238 241 246 250 255 257 256 250 245 244 245 245 246 245 243 241 240 240 240 239 238
321 321 321 321 320 320 320 320 319 319 318 318 318 318 318 317 317 316 315 315 315 316 315 313 312 312 312 313 313 312 311 312 311 309 308 310 310 307 300 292 286 281 278 274 272 271 270 268 267 267 266 264 261 256 250 247 248 247 243 240 239 238 236 236 239 243 246 249 251 252 251 246 240 238 239 241 242 242 241 241 239 239 238 238 238
322 322 321 321 321 321 321 320 319 319 319 319 319 320 319 318 318 317 316 317 317 317 316 314 312 313 315 315 315 315 314 314 314 313 313 315 317 314 308 301 294 289 286 282 278 276 273 270 268 266 265 264 263 260 252 245 246 248 245 242 240 239 238 239 241 244 246 249 248 246 245 242 238 237 236 235 236 238 236 235 233 233 235 237 239
322 322 322 321 321 321 320 320 320 320 320 320 320 320 320 319 318 317 317 317 318 318 316 314 312 314 316 316 317 318 315 314 316 315 315 317 320 317 309 304 301 298 295 290 286 281 276 271 267 262 260 260 260 260 253 244 243 247 248 245 242 240 239 239 241 244 245 245 243 241 240 238 236 237 236 233 231 230 227 227 229 231 233 236 238
322 322 322 321 321 321 321 320 321 321 321 321 321 321 320 319 318 318 318 318 318 318 316 314 314 316 318 319 320 318 315 315 315 312 312 315 319 316 310 306 305 303 299 296 292 288 281 273 265 257 251 250 251 251 249 244 242 246 248 248 245 241 238 238 240 243 244 242 240 238 236 234 232 233 232 230 228 225 222 223 227 229 231 234 238
322 322 322 323 322 322 322 322 322 322 322 321 321 321 320 319 319 320 319 319 319 319 317 316 316 318 319 321 321 318 315 315 310 307 312 320 328 327 320 314 311 307 303 302 300 293 283 273 265 256 249 245 244 244 243 241 241 245 249 250 246 241 238 237 239 241 242 241 239 237 233 232 231 230 229 227 225 223 222 223 225 229 231 234 237
324 324 324 324 324 324 324 324 324 323 323 322 322 321 320 320 321 322 321 321 320 320 318 317 318 319 320 322 322 318 314 310 305 311 324 333 339 338 328 319 316 314 310 308 304 295 285 277 268 258 251 248 245 242 240 237 234 236 240 243 241 239 239 238 237 238 240 240 239 236 233 231 229 228 228 227 224 223 224 225 225 227 230 232 235
325 325 325 325 325 325 326 326 325 325 324 323 323 322 321 321 322 324 323 322 322 321 319 318 319 319 320 325 327 319 308 301 306 328 337 330 332 340 334 322 316 315 313 311 306 297 290 283 273 262 252 248 244 241 238 235 232 231 232 231 231 234 239 240 238 238 240 240 239 236 233 231 228 226 227 226 224 223 224 225 223 221 224 228 232
326 326 326 327 327 328 328 327 326 325 325 324 324 324 323 323 324 326 325 324 323 321 319 319 320 320 323 328 328 318 301 288 302 338 339 324 327 342 339 325 315 311 310 309 307 302 296 289 280 268 255 246 242 238 233 230 229 229 229 227 227 230 235 238 239 238 238 239 239 236 232 229 225 222 223 222 220 218 218 219 219 218 221 226 229
328 328 328 329 330 329 329 328 327 326 326 326 326 326 325 325 326 328 327 325 323 321 320 320 320 321 324 328 326 318 300 279 289 328 332 325 332 345 343 332 321 316 311 308 309 308 301 293 283 269 255 244 240 238 233 229 228 228 227 225 225 228 231 234 238 239 239 239 237 233 229 225 220 218 217 216 213 212 211 213 217 218 220 222 224
329 330 330 331 331 331 330 329 329 328 327 328 328 327 328 328 329 330 328 325 324 322 320 321 321 322 326 329 328 324 309 283 283 307 321 327 335 341 339 331 327 328 322 313 312 310 303 295 283 266 251 240 235 236 235 231 229 229 228 226 227 229 232 235 238 242 242 240 235 227 221 218 216 215 214 211 209 207 207 211 216 216 215 215 218
330 331 331 332 333 332 332 331 330 330 329 329 329 330 330 330 330 331 330 327 326 325 323 323 322 324 328 331 330 328 322 302 284 293 317 331 331 329 327 323 327 336 334 321 314 311 304 295 280 258 247 241 237 237 237 235 233 233 233 231 232 234 236 238 239 238 237 234 227 218 213 212 211 211 210 208 206 205 206 211 214 213 211 213 217
330 331 332 332 332 333 333 332 332 331 331 330 331 332 332 332 332 333 332 330 329 327 325 325 325 325 328 330 328 326 325 320 303 296 311 320 316 317 323 321 322 333 335 325 322 321 309 293 273 250 242 242 241 240 241 242 242 240 237 235 235 235 235 234 233 231 228 224 219 211 207 207 207 207 207 206 204 205 208 211 213 213 212 215 218
329 330 330 331 331 332 332 332 333 333 332 331 331 331 332 333 333 333 332 330 328 327 326 325 324 322 323 324 323 320 320 320 316 308 304 297 288 298 316 315 317 327 332 330 334 334 320 290 261 237 232 238 240 240 243 248 248 245 241 237 236 236 232 227 224 221 218 215 211 206 203 203 203 203 204 204 205 207 209 211 213 214 215 216 219
328 329 329 329 330 331 331 331 332 333 333 333 331 330 330 331 332 333 332 329 327 326 324 322 319 318 318 317 318 316 313 313 312 308 300 288 280 285 299 306 314 322 325 331 338 336 331 322 281 243 229 225 222 213 207 219 235 242 240 235 231 228 223 217 213 211 210 206 203 200 199 200 200 201 203 205 207 209 211 213 215 215 215 217 221
326 327 327 328 329 329 329 330 331 332 333 333 332 331 329 328 329 331 333 332 329 326 323 319 316 316 315 313 313 313 310 307 306 304 299 292 284 281 284 293 307 315 317 325 328 322 324 340 312 250 214 196 190 180 173 182 197 207 216 219 213 209 208 206 205 205 203 200 197 197 197 198 198 199 202 206 209 210 212 215 216 216 217 218 221
326 326 326 326 327 328 328 328 329 330 331 332 333 333 331 329 328 329 331 334 332 328 325 321 318 316 316 313 312 310 307 304 302 301 299 298 294 285 277 279 289 297 300 310 315 308 305 306 246 199 197 198 194 185 177 181 184 178 180 193 195 195 199 202 203 201 198 195 194 194 194 196 198 200 204 207 208 210 213 215 216 217 217 218 220
326 326 326 326 326 326 327 327 328 328 330 331 332 333 332 331 330 330 330 331 332 331 328 325 321 318 317 316 313 311 308 305 302 300 298 298 299 293 280 274 276 282 287 294 303 300 292 281 250 209 202 204 203 198 194 193 190 178 169 178 188 194 198 200 199 198 196 194 193 193 193 195 198 201 205 208 208 209 212 215 217 218 218 218 219
326 326 326 325 325 326 326 326 327 327 328 330 331 332 333 332 332 331 332 332 333 333 332 330 328 325 322 319 318 316 313 310 307 305 303 302 300 297 288 277 271 272 274 277 282 286 283 275 264 245 223 212 209 208 206 205 202 197 187 179 180 188 195 198 198 198 197 196 194 194 196 197 197 200 205 209 209 210 212 215 217 218 218 219 220
326 326 325 325 325 325 326 326 326 327 328 329 330 331 332 332 332 332 332 332 333 334 333 331 331 331 329 325 322 319 317 312 307 304 304 304 301 296 290 279 268 264 265 266 268 272 274 270 265 257 245 232 222 216 212 210 209 207 204 197 189 185 188 194 199 202 203 202 200 199 200 200 202 205 209 212 214 214 214 215 216 217 218 220 221
327 326 326 325 325 325 326 326 326 327 327 328 329 330 331 332 332 332 332 333 332 332 333 331 330 330 331 328 324 321 318 314 309 305 304 305 304 300 295 285 271 263 263 264 266 267 267 266 262 258 253 246 238 230 224 220 218 216 213 210 206 201 195 194 197 201 205 207 209 209 208 209 211 214 216 218 219 219 218 217 218 219 220 222 222
328 327 326 326 326 327 327 327 326 326 327 327 327 328 329 331 332 332 332 333 332 332 333 332 330 330 331 331 329 326 323 318 312 306 302 301 301 300 298 293 283 272 266 265 266 265 263 262 260 257 254 251 246 241 237 232 230 228 224 221 218 215 212 208 204 203 205 207 210 212 215 217 220 222 223 224 225 224 223 222 222 224 225 226 225
329 328 328 328 328 328 327 327 326 326 327 327 326 327 328 330 331 332 333 333 333 333 333 333 332 330 331 332 332 330 326 322 316 308 300 295 293 292 291 290 287 282 276 271 269 267 264 261 259 256 255 254 251 248 245 241 238 236 234 231 228 225 224 222 219 216 214 213 212 214 217 221 225 228 229 231 232 232 231 229 230 231 231 230 229
330 330 330 329 329 329 328 328 327 327 327 327 327 327 328 329 331 332 333 334 334 334 334 334 333 332 331 332 333 332 331 329 326 321 313 304 296 291 289 288 285 282 279 275 272 269 266 263 260 258 256 255 254 252 249 246 242 240 238 237 235 233 231 230 228 227 226 224 223 222 223 226 229 232 234 237 239 239 239 239 238 238 236 234 233
331 331 331 330 330 330 329 329 328 327 327 327 327 327 327 329 330 331 332 334 335 335 334 334 334 333 332 332 333 333 332 331 330 328 325 319 311 301 294 289 285 282 279 276 274 272 268 265 263 259 257 255 254 253 252 248 245 243 240 238 237 237 236 235 234 233 233 232 231 231 232 232 234 236 238 241 243 244 245 244 243 241 239 236 234
332 332 332 332 331 331 330 329 329 328 327 327 327 327 327 328 329 330 332 333 334 335 335 334 334 333 332 331 331 331 331 330 330 329 328 325 321 314 305 296 288 283 280 277 276 273 270 266 263 260 258 256 253 253 252 250 248 246 242 238 236 235 236 237 237 236 236 236 236 236 236 237 238 239 241 243 245 246 246 245 243 240 238 236 232
333 333 332 332 331 331 330 329 329 329 328 328 327 327 327 327 328 329 330 332 333 335 334 333 332 332 332 330 329 329 330 329 329 328 327 325 322 317 311 303 294 287 282 279 277 274 271 267 263 259 257 255 253 253 252 251 249 247 242 236 232 231 232 234 235 236 237 238 237 237 237 237 237 238 239 240 240 240 240 238 237 236 234 232 229
334 333 333 332 331 331 330 329 329 329 329 328 328 327 326 326 327 328 328 330 331 333 334 333 331 331 332 331 329 327 327 327 327 326 325 324 322 318 313 306 298 291 285 280 277 272 269 267 264 260 256 253 252 252 252 251 250 247 241 235 229 226 226 227 229 232 234 236 235 235 235 234 234 233 232 232 231 231 230 230 230 229 229 227 225
336 335 334 333 332 331 330 329 329 329 329 328 328 327 326 325 325 326 327 328 329 331 333 333 331 329 330 331 330 327 325 325 326 326 324 323 322 320 315 309 301 294 287 282 277 272 267 264 263 260 256 252 249 249 250 249 248 244 239 234 229 224 221 221 223 225 227 228 229 229 230 231 232 231 230 229 228 228 227 227 227 226 226 226 224
338 337 336 335 334 333 331 330 329 328 328 328 328 327 326 324 324 324 325 326 327 328 330 331 331 329 328 329 330 329 326 324 324 325 324 323 321 320 317 312 304 297 291 284 277 272 267 261 259 258 255 251 248 246 246 245 244 240 236 231 227 223 221 220 220 221 222 222 222 223 224 226 228 228 228 229 229 229 230 229 229 229 228 227 226
342 340 339 337 336 335 333 331 329 328 327 327 327 327 326 325 324 324 324 325 326 326 328 329 330 329 328 327 328 329 327 324 322 322 322 322 321 319 318 315 308 301 295 288 279 273 267 261 257 255 253 250 247 245 244 243 240 238 235 230 225 222 221 219 219 220 219 219 218 218 219 221 223 223 224 225 226 227 228 228 228 229 228 227 226
344 343 342 340 338 336 335 333 331 329 327 326 326 326 325 325 324 323 323 324 324 324 325 327 328 328 327 326 325 326 327 325 321 319 320 321 321 319 318 317 313 306 299 292 283 275 267 262 257 254 250 247 246 244 243 242 239 235 233 230 226 222 220 219 219 219 218 217 217 217 216 217 218 219 220 220 220 220 222 222 223 224 224 223 222
346 345 344 342 340 338 336 335 333 331 328 326 325 324 324 324 323 323 322 322 323 323 323 324 325 325 325 325 323 323 325 325 322 319 317 317 319 318 316 315 314 310 303 296 287 279 270 263 258 254 249 246 244 242 241 241 239 235 232 230 226 223 221 219 219 218 217 216 217 217 217 217 217 217 217 217 216 216 216 216 217 218 219 219 218
348 348 346 345 343 341 339 337 335 332 330 327 325 323 323 323 322 322 321 321 321 321 321 322 323 323 323 323 322 321 321 322 322 320 316 313 314 315 315 313 312 311 307 301 291 281 273 265 260 256 250 245 242 240 238 238 238 236 233 230 227 225 222 220 219 218 216 215 215 216 217 217 217 217 216 216 215 215 214 214 214 215 215 216 216
349 349 349 347 346 344 341 339 337 334 332 329 326 324 322 321 321 320 320 320 320 319 319 319 320 320 320 320 320 319 318 318 319 319 317 312 310 311 312 312 310 309 308 305 297 286 276 268 263 259 253 247 242 239 236 235 234 234 233 230 228 226 224 222 221 219 217 215 214 215 216 217 217 216 216 215 214 214 215 215 214 214 213 214 215